Location: Boiro
(42.6475°N, 8.8834°W)
Time: 03:03:21
(UTC+02:00)

FENGYUN 1C DEB - Visible Passes

Search period start: 01 July 2022 00:00
Search period end: 11 July 2022 00:00
Orbit: 584 x 834 km, 98.9° (Epoch: 29 June)

Date Brightness Start Highest point End Pass type
(mag) Time Alt. Az. Time Alt. Az. Time Alt. Az.
01 Jul ? 00:45:47 15° SSW 00:49:25 30° W 00:53:56 10° NW visible
01 Jul ? 23:52:07 17° SSE 23:56:15 89° ENE 00:01:21 10° NNW visible
02 Jul ? 01:32:50 10° WSW 01:34:33 11° W 01:36:14 10° WNW visible
02 Jul ? 22:58:51 10° SE 23:03:24 30° ENE 23:07:46 10° N visible
03 Jul ? 00:37:27 16° SSW 00:41:03 36° W 00:45:43 10° NNW visible
03 Jul ? 23:43:47 17° SSE 23:47:56 75° ENE 23:52:56 10° N visible
04 Jul ? 01:23:26 10° WSW 01:26:07 14° W 01:28:44 10° WNW visible
04 Jul ? 22:50:55 10° ESE 22:55:08 25° ENE 22:59:09 10° N visible
05 Jul ? 00:29:07 18° SSW 00:32:41 43° W 00:37:27 10° NNW visible
05 Jul ? 23:35:27 16° SSE 23:39:37 62° ENE 23:44:29 10° N visible
06 Jul ? 01:14:29 10° SW 01:17:41 17° W 01:20:53 10° NW visible
07 Jul ? 00:20:48 19° S 00:24:20 51° W 00:29:09 10° NNW visible
07 Jul ? 23:27:08 15° SE 23:31:17 51° ENE 23:36:00 10° N visible
08 Jul ? 01:06:09 12° SW 01:09:16 20° W 01:12:52 10° NW visible
09 Jul ? 00:12:29 20° S 00:15:58 63° WSW 00:20:47 10° NNW visible
09 Jul ? 23:18:49 13° SE 23:22:59 41° ENE 23:27:28 10° N visible
10 Jul ? 00:57:50 15° SW 01:00:50 24° W 01:04:44 10° NW visible
